Skip Page Navigation
NASA JPL Caltech
NASA Logo - Jet Propulsion Laboratory + View the NASA Portal
+ Center for Near-Earth Object Studies
JPL Home Earth Solar System Stars & Galaxies Technology
JPL Solar System Dynamics
BODIES ORBITS EPHEMERIDES TOOLS PHYSICAL DATA DISCOVERY FAQ SITE MAP
IMPORTANT: The SSD Announcement email list is now available. Major changes are coming in the near future, including possible hostname and/or URL changes. To be notified of such changes, subscribe to this email list.

Please visit this page for more details.


JPL Small-Body Database Browser
Search: [ help ]  
35805 (1999 JP41)
Classification: Main-belt Asteroid          SPK-ID: 2035805
Ephemeris | Orbit Diagram | Orbital Elements | Mission Design | Physical Parameters | Discovery Circumstances | Close-Approach Data ]

[ show orbit diagram ]
Orbital Elements at Epoch 2458600.5 (2019-Apr-27.0) TDB
Reference: JPL 22 (heliocentric ecliptic J2000)
 Element Value Uncertainty (1-sigma)   Units 
e .123478412351717 3.4973e-08  
a 2.288494180674097 8.9993e-09 au
q 2.005914552568317 8.124e-08 au
i 4.307774327939458 4.8946e-06 deg
node 175.9799651389629 4.7444e-05 deg
peri 65.94692672420108 5.28e-05 deg
M 265.6508236098349 2.6553e-05 deg
tp 2458931.904772343149
(2020-Mar-23.40477234)
9.4366e-05 TDB
period 1264.512554409219
3.46
7.4589e-06
2.042e-08
d
yr
n .2846946823459512 1.6793e-09 deg/d
Q 2.571073808779878 1.011e-08 au
  Orbit Determination Parameters
   # obs. used (total)      1350  
   data-arc span      9302 days (25.47 yr)  
   first obs. used      1993-10-09  
   last obs. used      2019-03-29  
   planetary ephem.      DE431  
   SB-pert. ephem.      SB431-N16  
   condition code      0  
   norm. resid. RMS      .53497  
   source      ORB  
   producer      Otto Matic  
   solution date      2019-Jul-13 01:48:51  

Additional Information
 Earth MOID = .997935 au 
 Jupiter MOID = 2.43679 au 
 T_jup = 3.586 
[ show covariance matrix ]

Ephemeris | Orbit Diagram | Orbital Elements | Mission Design | Physical Parameters | Discovery Circumstances | Close-Approach Data ]

Physical Parameter Table
Parameter Symbol Value Units Sigma Reference Notes
absolute magnitude H 14.9   n/a MPO358959  
diameter diameter 3.008 km 0.165 urn:nasa:pds:neowise_diameters_albedos::2.0[mainbelt] (http://adsabs.harvard.edu/abs/2011ApJ...741...68M)  
geometric albedo albedo 0.257   0.036 urn:nasa:pds:neowise_diameters_albedos::2.0[mainbelt] (http://adsabs.harvard.edu/abs/2011ApJ...741...68M)  

35805 (1999 JP41)          Discovered 1999-May-10 by LINEAR at Socorro
Reference: 20020227/Numbers.arcLast Updated: 2004-04-19

[ hide close-approach data ]
Close-Approach Data   ...sorted by Date/Time (TDB)
Date/Time (TDB) Time Uncertainty
(days_HH:MM)
Body Nominal Distance (au) Minimum Distance (au) Maximum Distance (au) V-relative (km/s) V-infinity (km/s) JD (TDB) Time Uncertainty (minutes) Semi-major axis (km) Semi-minor axis (km) range-LOV angle (deg) N-sigma BP Orbit Ref. Reference Modified
2035-May-25 18:37 00:04 Psych 0.0189214211177185 0.0189191888302294 0.018923653451264 2.53737834030736 2.53737808829943 2464473.275936983 3.49586416597764 122.229205896574 45.5278430766394 -26.7047382797165 34686.2830706185 T 22 CATAB v2.0e-lin.ifort 2019-Jul-13 01:48:56 2019-Jul-13 01:48

Alternate Designations
 1999 JP41 = 1993 TW26 
Ephemeris | Orbit Diagram | Orbital Elements | Mission Design | Physical Parameters | Discovery Circumstances | Close-Approach Data ]
ABOUT SSD CREDITS/AWARDS PRIVACY/COPYRIGHT GLOSSARY LINKS
FirstGov
(server date/time)  
NASA Home Page
Site Manager:   Ryan S. Park
Webmaster  Alan B. Chamberlin